Location: Potomac
(46.8816°N, 113.5795°W)
Time: 00:54:04
(UTC+00:00)

JY1SAT - Pass Details

Date: 30 June 2022
Orbit: 564 x 586 km, 97.6° (Epoch: 15 August)

Event Time Altitude Azimuth Distance (km) Brightness Sun altitude
Exits shadow 04:09:26 - 132° (SE) 2,154 ? -5.6°
Reaches altitude 10° 04:10:05 10° 128° (SE) 1,911 ? -5.7°
Maximum altitude 04:13:42 30° 68° (ENE) 1,075 ? -6.2°
Drops below altitude 10° 04:17:21 10° 7° (N) 1,924 ? -6.6°
Sets 04:19:42 0° 357° (N) 2,828 ? -6.9°
